Location: Degersen
(52.2871°N, 9.5716°E)
Time: 14:55:57
(UTC+00:00)

Cosmos 1023 Rocket - Pass Details

Date: 20 January 2026
Orbit: 731 x 768 km, 74.1° (Epoch: 16 February)

Event Time Altitude Azimuth Distance (km) Brightness Sun altitude
Exits shadow 04:56:51 22° 213° (SSW) 1,584 5.9 -21.2°
Maximum altitude 05:00:11 75° 296° (WNW) 771 4.3 -20.7°
Drops below altitude 10° 05:05:21 10° 23° (NNE) 2,276 7.1 -19.9°
Sets 05:07:44 0° 25° (NNE) 3,210 7.9 -19.5°
